CZ-4B R/B (46397 NORAD) Tracking and Keplerian Element Data

This shows tracking and keplerian element data for the satellite.

Feedback or suggestion? Click here.




ElementValue
Catalog46397
NameCZ-4B R/B
Epoch Orbit255
Epoch Day267.48449845
Epoch Year2020
RAAN20.2356
Inclination97.2635
Eccentricity0.0187071
Argument of Perigee90.1677
Mean Anonmoly272.1023
Mean Motion15.71231147
Decay Rate0.0010448
L11 46397U 20064B 20267.48449845 .00104480 51475-5 28052-3 0 9998
L22 46397 97.2635 20.2356 0187071 90.1677 272.1023 15.71231147 2556

Live tracking and technical data element details for CZ-4B R/B (NORAD 46397). CZ-4B R/B can be tracked NOW for your location showing map with azimuth and elevation plus other details from your city location.

Track the satellite on the map from your city or location and see movement details for azimuth, elevation, latitude, longitude, range, height, and movement on the map or in text.







IsCatalogInMostPopularTable: catalog: 46397, numindb: 3
Update: records affected: 1



GetName: 46397 CZ-4B R/B

Hit Count: updated at: Thu, 24 Sep 2020 19:05:43 GMT